When you browse on this site, cookies collect data to enhance your experience and personalize the content and advertising you see.
Visit our Privacy Policy to learn more. By continuing to use the site, you agree to this use of cookies and data.
EN

Hourly Weather Alichur

Today, 13 August, Thursday

Time Temperature Precipitation Wind Pressure Humidity
00:00 +8°C° 0 mm 2 mps 463 mmHg 26%
01:00 +8°C° 0 mm 2 mps 463 mmHg 28%
02:00 +7°C° 0 mm 2 mps 462 mmHg 30%
03:00 +6°C° 0 mm 2 mps 462 mmHg 33%
04:00 +5°C° 0 mm 2 mps 461 mmHg 35%
05:00 +5°C° 0 mm 1 mps 461 mmHg 38%
06:00 +6°C° 0 mm 2 mps 462 mmHg 35%
07:00 +7°C° 0 mm 2 mps 463 mmHg 33%
08:00 +8°C° 0 mm 2 mps 464 mmHg 31%
09:00 +9°C° 0 mm 3 mps 465 mmHg 26%
10:00 +11°C° 0 mm 3 mps 465 mmHg 21%
11:00 +12°C° 0 mm 4 mps 466 mmHg 17%
12:00 +14°C° 0 mm 6 mps 466 mmHg 15%
13:00 +15°C° 0 mm 8 mps 467 mmHg 14%
14:00 +16°C° 0 mm 10 mps 467 mmHg 12%
15:00 +16°C° 0 mm 10 mps 466 mmHg 13%
16:00 +16°C° 0 mm 11 mps 466 mmHg 13%
17:00 +14°C° 0 mm 11 mps 465 mmHg 14%
18:00 +13°C° 0 mm 8 mps 465 mmHg 16%
19:00 +13°C° 0 mm 6 mps 465 mmHg 18%
20:00 +11°C° 0 mm 3 mps 464 mmHg 21%
21:00 +11°C° 0 mm 3 mps 464 mmHg 23%
22:00 +10°C° 0 mm 2 mps 464 mmHg 26%
23:00 +9°C° 0 mm 2 mps 463 mmHg 28%

Tomorrow, 14 August, Friday

Time Temperature Precipitation Wind Pressure Humidity
00:00 +8°C° 0 mm 2 mps 463 mmHg 30%
01:00 +7°C° 0 mm 2 mps 462 mmHg 32%
02:00 +7°C° 0 mm 2 mps 462 mmHg 35%
03:00 +6°C° 0 mm 2 mps 461 mmHg 38%
04:00 +5°C° 0 mm 2 mps 461 mmHg 41%
05:00 +4°C° 0 mm 2 mps 460 mmHg 44%
06:00 +6°C° 0 mm 2 mps 461 mmHg 41%
07:00 +7°C° 0 mm 2 mps 462 mmHg 38%
08:00 +8°C° 0 mm 2 mps 463 mmHg 35%
09:00 +9°C° 0 mm 2 mps 464 mmHg 30%
10:00 +11°C° 0 mm 3 mps 464 mmHg 24%
11:00 +12°C° 0 mm 3 mps 465 mmHg 19%
12:00 +14°C° 0 mm 5 mps 466 mmHg 16%
13:00 +15°C° 0 mm 7 mps 466 mmHg 13%
14:00 +17°C° 0 mm 8 mps 467 mmHg 11%
15:00 +17°C° 0 mm 9 mps 467 mmHg 11%
16:00 +16°C° 0 mm 9 mps 466 mmHg 11%
17:00 +16°C° 0 mm 10 mps 466 mmHg 11%
18:00 +15°C° 0 mm 8 mps 466 mmHg 13%
19:00 +13°C° 0 mm 5 mps 465 mmHg 15%
20:00 +12°C° 0 mm 3 mps 464 mmHg 17%
21:00 +12°C° 0 mm 2 mps 464 mmHg 19%
22:00 +10°C° 0 mm 2 mps 464 mmHg 22%
23:00 +9°C° 0 mm 2 mps 463 mmHg 24%

Day after tomorrow, 15 August, Saturday

Time Temperature Precipitation Wind Pressure Humidity
00:00 +8°C° 0 mm 2 mps 463 mmHg 27%
01:00 +7°C° 0 mm 2 mps 462 mmHg 29%
02:00 +8°C° 0 mm 1 mps 462 mmHg 32%
03:00 +7°C° 0 mm 1 mps 461 mmHg 36%
04:00 +6°C° 0 mm 1 mps 461 mmHg 40%
05:00 +5°C° 0 mm 1 mps 460 mmHg 43%
06:00 +6°C° 0 mm 1 mps 461 mmHg 41%
07:00 +8°C° 0 mm 1 mps 462 mmHg 38%
08:00 +9°C° 0 mm 1 mps 463 mmHg 36%
09:00 +10°C° 0 mm 1 mps 464 mmHg 30%
10:00 +12°C° 0 mm 2 mps 464 mmHg 24%
11:00 +13°C° 0 mm 2 mps 465 mmHg 19%
12:00 +13°C° 0 mm 3 mps 466 mmHg 16%
13:00 +15°C° 0 mm 4 mps 466 mmHg 13%
14:00 +16°C° 0 mm 5 mps 467 mmHg 10%
15:00 +16°C° 0 mm 6 mps 467 mmHg 10%
16:00 +17°C° 0 mm 7 mps 467 mmHg 10%
17:00 +17°C° 0 mm 8 mps 467 mmHg 10%
18:00 +15°C° 0 mm 6 mps 467 mmHg 12%
19:00 +14°C° 0 mm 4 mps 466 mmHg 14%
20:00 +13°C° 0 mm 3 mps 466 mmHg 16%
21:00 +13°C° 0 mm 2 mps 465 mmHg 18%
22:00 +12°C° 0 mm 2 mps 465 mmHg 20%
23:00 +10°C° 0 mm 2 mps 465 mmHg 23%

16 August, Sunday

Time Temperature Precipitation Wind Pressure Humidity
00:00 +10°C° 0 mm 1 mps 464 mmHg 26%
01:00 +9°C° 0 mm 1 mps 463 mmHg 30%
02:00 +8°C° 0 mm 1 mps 463 mmHg 34%
03:00 +8°C° 0 mm 1 mps 462 mmHg 39%
04:00 +7°C° 0 mm 1 mps 462 mmHg 43%
05:00 +5°C° 0 mm 0 mps 462 mmHg 48%
06:00 +7°C° 0 mm 0 mps 463 mmHg 44%
07:00 +8°C° 0 mm 0 mps 464 mmHg 40%
08:00 +9°C° 0 mm 0 mps 465 mmHg 36%
09:00 +11°C° 0 mm 0 mps 466 mmHg 31%
10:00 +13°C° 0 mm 1 mps 466 mmHg 25%
11:00 +15°C° 0 mm 1 mps 467 mmHg 19%
12:00 +16°C° 0 mm 2 mps 468 mmHg 16%
13:00 +18°C° 0 mm 3 mps 468 mmHg 14%
14:00 +19°C° 0 mm 4 mps 469 mmHg 11%
15:00 +19°C° 0 mm 5 mps 469 mmHg 11%
16:00 +19°C° 0 mm 6 mps 469 mmHg 11%
17:00 +20°C° 0 mm 7 mps 469 mmHg 11%
18:00 +17°C° 0 mm 6 mps 468 mmHg 14%
19:00 +16°C° 0 mm 5 mps 468 mmHg 16%
20:00 +15°C° 0 mm 4 mps 467 mmHg 18%
21:00 +14°C° 0 mm 3 mps 467 mmHg 21%
22:00 +14°C° 0 mm 2 mps 466 mmHg 23%
23:00 +13°C° 0 mm 2 mps 466 mmHg 25%

17 August, Monday

Time Temperature Precipitation Wind Pressure Humidity
00:00 +12°C° 0 mm 1 mps 465 mmHg 28%
01:00 +11°C° 0 mm 1 mps 465 mmHg 30%
02:00 +10°C° 0 mm 1 mps 464 mmHg 33%
03:00 +10°C° 0 mm 1 mps 464 mmHg 36%
04:00 +9°C° 0 mm 1 mps 463 mmHg 39%
05:00 +8°C° 0 mm 1 mps 463 mmHg 42%
06:00 +9°C° 0 mm 1 mps 464 mmHg 39%
07:00 +11°C° 0 mm 1 mps 465 mmHg 37%
08:00 +12°C° 0 mm 1 mps 466 mmHg 34%
09:00 +13°C° 0 mm 2 mps 466 mmHg 30%
10:00 +14°C° 0 mm 2 mps 467 mmHg 26%
11:00 +16°C° 0 mm 2 mps 467 mmHg 21%
12:00 +17°C° 0 mm 4 mps 468 mmHg 19%
13:00 +17°C° 0 mm 5 mps 468 mmHg 16%
14:00 +19°C° 0 mm 6 mps 468 mmHg 14%
15:00 +18°C° 0 mm 7 mps 468 mmHg 14%
16:00 +18°C° 0 mm 8 mps 468 mmHg 14%
17:00 +18°C° 0 mm 9 mps 467 mmHg 14%
18:00 +16°C° 0 mm 8 mps 467 mmHg 16%
19:00 +15°C° 0 mm 6 mps 466 mmHg 19%
20:00 +14°C° 0 mm 5 mps 466 mmHg 21%
21:00 +13°C° 0 mm 4 mps 465 mmHg 23%
22:00 +12°C° 0 mm 3 mps 465 mmHg 25%
23:00 +12°C° 0 mm 2 mps 464 mmHg 28%

18 August, Tuesday

Time Temperature Precipitation Wind Pressure Humidity
00:00 +10°C° 0 mm 2 mps 464 mmHg 29%
01:00 +9°C° 0 mm 2 mps 463 mmHg 31%
02:00 +8°C° 0 mm 2 mps 462 mmHg 33%
03:00 +8°C° 0 mm 2 mps 462 mmHg 34%
04:00 +7°C° 0 mm 2 mps 461 mmHg 36%
05:00 +6°C° 0 mm 2 mps 461 mmHg 37%
06:00 +8°C° 0 mm 2 mps 462 mmHg 34%
07:00 +9°C° 0 mm 2 mps 463 mmHg 31%
08:00 +10°C° 0 mm 3 mps 464 mmHg 27%
09:00 +11°C° 0 mm 3 mps 464 mmHg 24%
10:00 +13°C° 0 mm 4 mps 465 mmHg 20%
11:00 +14°C° 0 mm 5 mps 465 mmHg 17%
12:00 +15°C° 0 mm 7 mps 465 mmHg 16%
13:00 +16°C° 0 mm 9 mps 466 mmHg 15%
14:00 +17°C° 0 mm 11 mps 466 mmHg 14%
15:00 +15°C° 0 mm 12 mps 465 mmHg 15%
16:00 +15°C° 0 mm 12 mps 465 mmHg 17%
17:00 +14°C° 0 mm 13 mps 464 mmHg 18%
18:00 +13°C° 0 mm 10 mps 464 mmHg 22%
19:00 +11°C° 0 mm 8 mps 463 mmHg 25%
20:00 +10°C° 0 mm 5 mps 463 mmHg 28%
21:00 +9°C° 0 mm 5 mps 463 mmHg 31%
22:00 +8°C° 0 mm 4 mps 462 mmHg 35%
23:00 +8°C° 0 mm 3 mps 462 mmHg 38%
Show more